User: anonymous   Login
Location: Unspecified
(0.0000°N, 0.0000°E)
Time: 19:21:32
(UTC+00:00)
Language:

Alouette 1 - Orbit

View from above orbital plane
View from above orbital plane
View from above satellite
View from above satellite

Ground track
Ground track

The orbit data is extracted from the following two-line orbital elements,

1   424U 62049A   17178.72761340 +.00000033 +00000-0 +28111-4 0  9998
2   424 080.4676 256.7193 0023648 050.4306 113.5538 13.69083723732502
Epoch (UTC): 27 June 2017 17:27:45
Eccentricity: 0.0023648
inclination: 80.4676°
perigee height: 985 km
apogee height: 1020 km
right ascension of ascending node: 256.7193°
argument of perigee: 50.4306°
revolutions per day: 13.69083723
mean anomaly at epoch: 113.5538°
orbit number at epoch: 73250

The dashed part of the orbit path shows where the satellite is in the earth's shadow,  

DLR